Temp
11 12 11 11 10 10 10 9 8 8 8 8 8 8 8 8 8 8 8 8 8 8
11 11 11 11 11 11 9 8 8 8 8 8 8 8 8 8 7 8 7 7 7 7
12 12 11 11 10 9 9 8 8 8 7 7 7 7 8 8 7 7 7 6 6 6
12 11 11 10 9 9 8 8 8 8 7 7 7 7 7 7 7 6 6 6 5 5
11 11 10 10 9 8 8 8 7 7 7 7 7 7 7 6 6 6 6 5 5 5
8 9 9 9 8 8 7 7 7 7 7 7 7 6 6 6 6 5 5 4 4 4
8 7 7 7 8 7 7 7 7 7 6 6 6 6 5 5 5 5 4 4 3 3
8 7 7 7 7 7 7 7 6 6 5 5 5 5 5 5 4 4 4 3 3 2
7 7 6 6 6 6 6 6 5 5 5 5 4 5 5 4 4 3 3 3 2 2
6 6 6 6 6 5 5 5 5 5 4 4 4 4 4 4 3 3 2 2 1 1
6 6 5 5 5 5 5 5 5 4 4 4 4 4 4 3 2 2 2 2 1 1
5 5 5 5 5 5 5 4 4 4 4 3 3 3 3 3 2 2 2 2 1 1
6 5 5 5 4 4 4 4 4 3 3 3 2 3 2 2 2 2 2 2 1 1
5 6 5 5 4 4 4 4 3 3 3 2 3 2 1 1 0 1 1 1 1 1
Height
755 761 771 773 776 785 788 790 795 798 802 806 809 812 813 816 820 822 825 829 827 831
760 760 768 776 779 786 789 792 795 798 803 808 811 814 816 819 821 822 827 829 829 833
754 763 772 775 781 787 790 792 794 798 805 811 813 816 818 818 823 825 825 832 830 834
760 769 774 780 784 789 789 792 795 800 806 812 815 818 819 822 824 825 828 829 834 833
761 768 776 782 783 788 790 793 798 801 808 813 815 820 821 824 824 826 828 833 832 832
764 770 780 782 785 790 791 795 800 805 811 813 817 820 823 824 825 826 830 831 831 832
768 777 783 783 783 792 795 799 800 808 811 817 818 821 823 824 826 827 830 830 831 831
774 782 783 784 787 796 796 798 804 811 817 817 820 822 824 824 827 830 830 830 829 830
779 784 784 786 790 796 799 802 807 816 816 816 821 822 823 825 827 829 829 829 828 828
781 782 784 787 794 797 800 806 812 815 817 820 820 822 825 825 827 828 827 827 827 827
780 783 788 791 795 798 802 807 812 817 819 819 822 824 825 825 825 827 827 826 825 825
782 784 789 792 797 804 806 809 812 816 819 822 824 825 824 824 826 826 825 824 823 823
782 786 790 794 801 805 809 810 813 817 820 824 825 824 823 824 825 824 823 822 822 822
786 790 794 798 803 805 810 814 816 818 821 823 824 824 824 824 823 823 822 822 821 820
Wind_Speed
16 20 20 19 23 20 19 19 19 17 16 15 14 14 14 14 12 12 10 8 10 7
23 22 20 21 20 20 21 22 19 18 16 15 14 14 13 13 13 11 9 8 9 6
17 21 22 21 21 21 22 22 21 19 17 14 14 15 14 15 11 11 11 7 8 5
22 22 23 23 23 22 22 22 21 20 17 15 15 14 14 13 11 11 9 9 4 5
24 21 22 21 24 24 23 21 22 21 19 17 16 14 12 11 11 11 9 4 5 4
20 22 23 25 23 21 23 24 21 21 19 17 15 15 12 11 10 10 6 4 4 3
21 20 21 27 27 23 25 25 24 19 18 16 15 13 12 10 9 7 4 4 3 4
24 21 24 28 27 25 24 23 22 20 17 16 14 11 10 9 7 4 4 4 4 5
23 23 25 27 27 25 24 22 21 17 16 15 12 11 10 7 5 4 3 4 5 6
21 25 26 27 28 25 24 22 18 16 15 12 11 9 7 6 3 3 4 5 6 7
22 24 24 25 24 24 22 20 18 15 12 11 9 6 5 5 4 4 5 6 7 8
23 25 25 24 22 19 21 19 16 13 11 8 5 3 5 6 5 6 7 8 8 9
26 27 25 26 22 20 17 17 15 13 9 7 2 4 6 6 5 7 9 10 10 10
26 26 25 24 21 19 17 14 12 9 6 4 2 4 6 6 6 8 10 11 12 11
Wind_Direction
162 155 156 148 144 146 142 141 140 132 133 130 130 125 119 115 106 102 95 83 77 66
161 148 153 150 142 141 138 138 134 132 129 131 126 124 116 114 110 106 98 82 76 63
146 148 149 143 138 138 136 136 131 128 127 129 128 125 129 110 109 108 92 81 70 59
144 147 145 141 137 135 132 131 129 127 128 129 129 115 114 109 109 94 84 67 83 62
137 137 135 135 132 132 129 129 130 129 129 126 120 120 104 115 98 92 79 85 62 43
134 132 135 131 126 127 130 126 124 133 126 124 121 116 107 100 92 87 88 70 51 17
137 142 139 137 135 138 133 130 125 128 124 124 117 110 102 96 90 79 78 56 25 7
139 141 133 130 128 133 127 125 128 128 123 116 107 103 100 92 89 86 61 27 4 337
138 138 128 126 126 128 125 122 123 128 116 106 108 103 95 94 74 47 27 356 344 331
137 127 124 129 132 124 122 125 122 115 111 111 99 88 78 65 45 26 353 342 333 332
130 124 127 126 125 124 124 124 121 121 118 108 101 83 53 28 15 346 332 327 330 331
131 126 127 119 118 123 128 123 124 121 113 105 99 63 24 22 343 329 334 332 329 315
139 133 131 134 129 129 129 127 125 122 123 129 92 21 4 357 343 331 335 333 320 309
144 141 138 136 135 131 129 124 121 120 118 95 54 339 340 347 4 341 326 315 312 310